Location: Bjelajci
(45.0103°N, 16.1758°E)
Time: 04:24:16
(UTC+00:00)

Cosmos 2242 Rocket - Pass Details

Date: 14 July 2020
Orbit: 618 x 652 km, 82.5° (Epoch: 11 August)

Event Time Altitude Azimuth Distance (km) Brightness Sun altitude
Rises 00:03:46 0° 350° (N) 2,978 8.1 -21.8°
Reaches altitude 10° 00:06:02 10° 349° (N) 2,059 7.1 -21.7°
Maximum altitude 00:10:37 80° 264° (W) 659 3.5 -21.5°
Enters shadow 00:11:25 60° 190° (S) 740 3.6 -21.5°
